This demonstration page uses our WeatherBlox Daily Observations layout. Learn more.

40.92945, -100.16068

Hourly Observations for June 29, 2017

Temp ( °F °C ) Dew Point ( °F °C ) Humidity (%) Winds ( mph kmh ) Pressure ( in mb ) Visibility ( mi km ) Precip ( " mm )
12:15 am 00:15 Partly Cloudy 73 22.8 65 18.3 76 76 NNW 12 19 29.71 1006 10 16.0934 0 0
12:35 am 00:35 Cloudy 73 22.7 65 18.2 76 76 N 10 17 29.71 1006 10 16.0934 0 0
12:55 am 00:55 Mostly Cloudy 74 23.1 60 15.3 62 62 NNE 18 30 29.65 1004 10 16.0934 0 0
1:15 am 01:15 Clear 74 23.1 53 11.8 49 49 NNE 16 26 29.65 1004 10 16.0934 0 0
1:35 am 01:35 Clear 73 22.8 52 11.3 48 48 NE 12 19 29.62 1003 10 16.0934 0 0
1:55 am 01:55 Clear 73 22.5 53 11.6 50 50 NE 12 19 29.62 1003 10 16.0934 0 0
2:15 am 02:15 Clear 71 21.8 54 12 54 54 SE 7 11 29.62 1003 10 16.0934 0 0
2:35 am 02:35 Clear 71 21.6 55 12.9 58 58 SSE 9 15 29.62 1003 10 16.0934 0 0
2:55 am 02:55 Clear 71 21.7 57 13.9 61 61 SE 8 13 29.62 1003 10 16.0934 0 0
3:15 am 03:15 Clear 72 22.1 59 14.8 63 63 SE 7 11 29.62 1003 10 16.0934 0 0
3:35 am 03:35 Clear with Nearby Thunderstorms 72 22.3 60 15.4 65 65 SE 7 11 29.65 1004 10 16.0934 0 0
3:55 am 03:55 Clear 71 21.4 58 14.4 65 65 N 9 15 29.68 1005 10 16.0934 0 0
4:15 am 04:15 Partly Cloudy 72 22 58 14.4 62 62 N 8 13 29.74 1007 10 16.0934 0 0
4:35 am 04:35 Mostly Cloudy 72 22 55 12.7 56 56 NNW 10 17 29.74 1007 10 16.0934 0 0
4:55 am 04:55 Cloudy 71 21.4 55 12.5 57 57 N 10 17 29.8 1009 10 16.0934 0 0
5:15 am 05:15 Mostly Cloudy 69 20.5 55 12.9 62 62 NNE 10 17 29.8 1009 10 16.0934 0 0
5:35 am 05:35 Mostly Cloudy 68 20 56 13.2 65 65 NE 12 19 29.74 1007 10 16.0934 0 0
5:55 am 05:55 Partly Cloudy 68 20 56 13.3 65 65 NE 12 19 29.74 1007 10 16.0934 0 0
6:15 am 06:15 Partly Cloudy 69 20.5 56 13.1 63 63 E 16 26 29.68 1005 10 16.0934 0 0
6:35 am 06:35 Sunny 71 21.4 55 12.6 57 57 ESE 17 28 29.59 1002 10 16.0934 0 0
6:55 am 06:55 Sunny 71 21.9 55 12.7 56 56 SE 16 26 29.59 1002 10 16.0934 0 0
7:15 am 07:15 Sunny 69 20.5 56 13.6 65 65 SE 18 30 29.59 1002 10 16.0934 0 0
7:35 am 07:35 Sunny 68 20.2 57 14.1 68 68 ESE 8 13 29.65 1004 10 16.0934 0 0
7:55 am 07:55 Sunny 68 20.1 58 14.6 71 71 ESE 6 9 29.65 1004 10 16.0934 0 0
8:15 am 08:15 Sunny 69 20.6 59 15.1 71 71 SSE 5 7 29.68 1005 10 16.0934 0 0
8:35 am 08:35 Sunny 69 20.5 60 15.6 74 74 S 3 6 29.68 1005 10 16.0934 0 0
8:55 am 08:55 Sunny 71 21.4 60 15.7 70 70 Calm 29.65 1004 10 16.0934 0 0
9:15 am 09:15 Sunny 72 22.3 61 16.2 69 69 S 7 11 29.68 1005 10 16.0934 0 0
9:35 am 09:35 Sunny 75 23.9 62 16.5 63 63 S 20 31 29.68 1005 10 16.0934 0 0
9:55 am 09:55 Sunny 75 23.8 62 16.5 64 64 S 21 33 29.71 1006 10 16.0934 0 0
10:15 am 10:15 Partly Cloudy 75 23.8 62 16.6 64 64 S 20 31 29.71 1006 10 16.0934 0 0
10:35 am 10:35 Partly Cloudy 75 23.9 62 16.8 65 65 SSW 17 28 29.71 1006 10 16.0934 0 0
10:55 am 10:55 Sunny 76 24.4 62 16.6 62 62 SSW 17 28 29.71 1006 10 16.0934 0 0
11:15 am 11:15 Sunny 78 25.5 63 17 59 59 SSW 14 22 29.71 1006 10 16.0934 0 0
11:35 am 11:35 Sunny 78 25.8 62 16.9 58 58 SSW 15 24 29.71 1006 10 16.0934 0 0
11:55 am 11:55 Sunny 80 26.5 63 17.2 57 57 SW 17 28 29.71 1006 10 16.0934 0 0
12:15 pm 12:15 Sunny 80 26.9 63 17 55 55 SW 13 20 29.71 1006 10 16.0934 0 0
12:35 pm 12:35 Sunny 81 27.3 62 16.5 52 52 SW 14 22 29.74 1007 10 16.0934 0 0
12:55 pm 12:55 Sunny 82 27.9 60 15.6 47 47 SW 10 17 29.74 1007 10 16.0934 0 0
1:15 pm 13:15 Sunny 83 28.4 61 15.9 47 47 SW 12 19 29.74 1007 10 16.0934 0 0
1:35 pm 13:35 Partly Cloudy 84 28.7 60 15.4 44 44 WSW 12 19 29.74 1007 10 16.0934 0 0
1:55 pm 13:55 Partly Cloudy 85 29.4 60 15.5 43 43 WSW 12 19 29.71 1006 10 16.0934 0 0
2:15 pm 14:15 Partly Cloudy 85 29.3 61 16.1 45 45 SW 10 17 29.68 1005 7 11.26538 0 0
2:35 pm 14:35 Partly Cloudy 86 29.8 59 15.2 41 41 WSW 10 17 29.68 1005 10 16.0934 0 0
2:55 pm 14:55 Partly Cloudy 85 29.7 60 15.5 42 42 WSW 8 13 29.68 1005 10 16.0934 0 0
3:15 pm 15:15 Sunny 87 30.4 60 15.7 41 41 WSW 8 13 29.68 1005 10 16.0934 0 0
3:35 pm 15:35 Sunny 87 30.6 58 14.7 38 38 W 10 17 29.68 1005 10 16.0934 0 0
3:55 pm 15:55 Sunny 88 31 59 14.9 38 38 W 7 11 29.68 1005 10 16.0934 0 0
4:15 pm 16:15 Sunny 88 31 59 14.9 38 38 W 8 13 29.65 1004 10 16.0934 0 0
4:35 pm 16:35 Sunny 86 30.1 63 17 45 45 NNW 9 15 29.65 1004 10 16.0934 0 0
4:55 pm 16:55 Hazy 86 30 62 16.5 44 44 NNW 6 9 29.65 1004 4 6.43736 0 0
5:15 pm 17:15 Sunny 88 30.9 60 15.3 39 39 NNW 6 9 29.65 1004 10 16.0934 0 0
5:35 pm 17:35 Sunny 88 31 58 14.7 37 37 NW 5 7 29.65 1004 10 16.0934 0 0
5:55 pm 17:55 Sunny 88 31.1 57 14.1 35 35 NW 6 9 29.65 1004 10 16.0934 0 0
6:15 pm 18:15 Sunny 88 31 55 12.9 33 33 NW 7 11 29.65 1004 10 16.0934 0 0
6:35 pm 18:35 Sunny 88 31 56 13.1 33 33 NW 13 20 29.65 1004 10 16.0934 0 0
6:55 pm 18:55 Sunny 87 30.4 55 12.5 33 33 NW 9 15 29.65 1004 10 16.0934 0 0
7:15 pm 19:15 Sunny 86 29.9 55 12.5 34 34 NNW 9 15 29.65 1004 10 16.0934 0 0
7:35 pm 19:35 Sunny 84 29 54 12.2 35 35 NNW 9 15 29.65 1004 10 16.0934 0 0
7:55 pm 19:55 Sunny 82 28 58 14.3 43 43 NNW 5 7 29.71 1006 10 16.0934 0 0
8:15 pm 20:15 Sunny 81 27.1 56 13.4 43 43 NNW 8 13 29.71 1006 10 16.0934 0 0
8:35 pm 20:35 Sunny 78 25.4 56 13.5 48 48 N 8 13 29.77 1008 10 16.0934 0 0
8:55 pm 20:55 Sunny 75 23.9 57 13.8 53 53 N 8 13 29.77 1008 10 16.0934 0 0
9:15 pm 21:15 Clear 74 23.6 55 12.6 50 50 N 6 9 29.8 1009 10 16.0934 0 0
9:35 pm 21:35 Clear 75 23.7 53 11.8 47 47 N 8 13 29.83 1010 10 16.0934 0 0
9:55 pm 21:55 Clear 75 23.9 50 10.2 42 42 N 9 15 29.83 1010 10 16.0934 0 0
10:15 pm 22:15 Clear 74 23.3 49 9.3 41 41 N 10 17 29.85 1011 10 16.0934 0 0
10:35 pm 22:35 Clear 74 23.1 48 8.7 40 40 N 12 19 29.85 1011 10 16.0934 0 0
10:55 pm 22:55 Clear 72 22.1 48 9.1 44 44 NNW 10 17 29.88 1012 10 16.0934 0 0
11:15 pm 23:15 Clear 72 22.1 47 8.5 42 42 N 14 22 29.88 1012 10 16.0934 0 0
11:35 pm 23:35 Clear 71 21.7 48 9 44 44 N 14 22 29.88 1012 10 16.0934 0 0
11:55 pm 23:55 Clear 70 21.1 50 9.8 49 49 N 13 20 29.91 1013 10 16.0934 0 0

Powered by AerisWeather